Location: Diebersbach
(48.5163°N, 8.0558°E)
Time: 16:13:08
(UTC+00:00)

Cosmos 921 Rocket - Pass Details

Date: 20 June 2021
Orbit: 572 x 632 km, 75.8° (Epoch: 31 July)

Event Time Altitude Azimuth Distance (km) Brightness Sun altitude
Exits shadow 01:32:35 20° 219° (SW) 1,349 4.2 -12.9°
Maximum altitude 01:35:19 58° 293° (WNW) 675 3.2 -12.7°
Drops below altitude 10° 01:39:28 10° 13° (NNE) 1,889 6.8 -12.4°
Sets 01:41:42 0° 18° (NNE) 2,791 8.2 -12.2°
